Temp
3 3 3 3 2 2 2 3 3 3 3 3 4 4 3 2 2 3 4 4 3 4 4 4 4 4 4 4 4 4 5 5 5 5 5 5 4 4 4 4 4 4 4
3 2 2 2 3 3 3 3 4 4 3 3 3 3 3 1 1 3 4 4 4 4 4 4 4 4 4 4 4 4 4 4 4 4 4 4 4 4 4 4 4 3 3
3 2 2 2 2 3 3 3 3 3 3 3 3 3 3 3 3 3 4 4 4 4 4 4 4 4 4 4 4 4 4 4 4 4 4 4 4 4 4 4 4 3 3
2 2 3 2 2 3 3 3 3 3 3 3 3 3 3 3 4 4 4 4 4 4 4 4 4 4 4 4 4 4 4 4 4 4 4 4 4 4 4 3 3 3 3
2 2 2 2 2 2 2 3 3 3 3 3 3 4 4 4 4 4 4 4 4 4 4 4 4 4 4 4 4 4 4 4 4 4 4 4 4 3 3 3 3 3 3
1 1 1 2 2 2 2 2 3 3 3 3 3 4 4 4 4 4 4 4 4 4 4 4 4 4 4 4 4 4 4 4 4 4 4 4 4 4 3 3 3 3 3
1 1 1 1 2 2 2 2 2 3 3 3 3 3 4 4 4 4 4 4 4 4 4 4 4 4 4 4 4 4 4 4 4 4 3 3 3 4 3 4 3 3 2
0 1 1 1 1 1 1 2 2 2 2 3 3 3 3 3 4 4 4 4 3 3 3 4 4 4 4 4 4 4 4 4 4 4 3 3 3 3 3 3 3 3 3
0 0 0 1 1 1 1 1 1 2 2 2 2 2 3 3 3 3 3 3 3 3 3 3 3 4 4 4 4 4 4 4 4 3 3 3 3 3 3 3 3 3 3
-0 -0 -0 0 0 0 1 1 1 1 1 2 2 2 2 2 2 2 2 3 3 3 3 3 3 3 3 3 3 4 4 4 3 3 3 2 2 2 2 2 2 2 2
-1 -1 -1 -1 -0 -0 0 0 0 0 1 1 1 1 1 1 2 2 2 2 2 2 2 2 3 3 3 3 3 3 3 3 3 3 2 2 2 1 1 1 1 1 1
-1 -1 -1 -1 -1 -1 -1 -0 -0 -0 0 0 0 0 0 0 1 1 1 1 2 1 1 1 1 2 2 2 3 3 3 3 2 2 2 1 1 1 1 0 0 1 1
-2 -2 -2 -2 -2 -1 -1 -1 -1 -1 -1 -0 -0 0 0 0 0 1 1 1 1 1 1 1 1 1 1 1 1 2 2 2 2 1 1 1 0 -0 -0 -0 -0 0 0
-2 -2 -2 -2 -2 -2 -2 -2 -2 -1 -1 -1 -1 -1 -0 0 0 0 0 1 1 1 1 1 0 0 0 0 1 1 1 1 1 1 0 -0 -0 -0 -1 -1 -1 -0 -0
-3 -3 -3 -3 -3 -2 -2 -2 -2 -2 -2 -2 -1 -1 -1 -1 -0 -0 0 0 0 0 1 0 -0 -0 -0 -0 -0 -0 -1 -0 -0 -1 -1 -1 -1 -1 -1 -1 -1 -1 -1
-3 -3 -3 -3 -3 -3 -3 -3 -3 -2 -2 -2 -2 -1 -1 -1 -1 -1 -1 -1 -1 -1 -1 -1 -1 -1 -1 -1 -1 -1 -2 -2 -3 -2 -2 -2 -2 -2 -2 -2 -2 -2 -2
-4 -4 -4 -4 -3 -3 -3 -3 -3 -3 -2 -2 -2 -2 -2 -2 -1 -1 -1 -1 -1 -2 -2 -2 -3 -2 -2 -2 -2 -3 -3 -4 -4 -4 -3 -4 -3 -2 -3 -3 -2 -2 -2
-5 -5 -4 -5 -5 -5 -4 -3 -3 -3 -3 -3 -3 -3 -3 -3 -2 -2 -2 -2 -2 -3 -3 -3 -4 -5 -5 -4 -5 -5 -6 -6 -6 -5 -6 -5 -4 -3 -3 -3 -2 -3 -3
-6 -6 -6 -5 -5 -4 -4 -4 -4 -3 -3 -3 -4 -4 -4 -4 -4 -4 -4 -4 -4 -5 -6 -6 -7 -7 -7 -8 -8 -8 -8 -8 -8 -7 -7 -7 -5 -4 -3 -3 -3 -3 -3
-7 -6 -6 -5 -6 -6 -5 -4 -4 -4 -4 -4 -4 -4 -5 -5 -5 -5 -6 -7 -7 -7 -7 -7 -7 -7 -8 -8 -8 -8 -8 -8 -8 -8 -8 -7 -7 -5 -4 -4 -4 -4 -3
-6 -6 -6 -6 -6 -6 -5 -5 -5 -4 -5 -5 -5 -5 -5 -5 -6 -7 -7 -7 -6 -6 -6 -6 -6 -6 -6 -7 -7 -7 -7 -8 -7 -8 -8 -8 -7 -6 -5 -4 -4 -4 -4
-7 -6 -6 -6 -6 -6 -5 -5 -5 -5 -5 -5 -5 -6 -6 -6 -6 -7 -7 -7 -6 -6 -6 -5 -6 -6 -7 -7 -8 -8 -8 -8 -7 -7 -8 -8 -7 -6 -6 -5 -5 -5 -5
-7 -7 -7 -8 -6 -6 -5 -5 -6 -6 -5 -5 -6 -6 -7 -7 -7 -7 -7 -6 -6 -6 -6 -6 -6 -7 -8 -8 -8 -8 -8 -8 -8 -8 -7 -7 -7 -7 -6 -6 -6 -6 -5
-7 -7 -8 -7 -6 -6 -6 -6 -6 -6 -6 -6 -6 -7 -8 -7 -7 -7 -7 -7 -7 -7 -7 -7 -7 -7 -8 -8 -8 -8 -8 -8 -8 -8 -8 -8 -7 -7 -7 -7 -6 -6 -6
-7 -9 -8 -7 -7 -6 -6 -6 -6 -6 -6 -7 -7 -8 -8 -8 -7 -7 -7 -8 -8 -8 -8 -8 -8 -8 -8 -8 -8 -8 -8 -8 -8 -8 -8 -8 -7 -7 -7 -7 -6 -6 -6
-9 -9 -8 -8 -7 -7 -7 -7 -6 -7 -7 -8 -8 -8 -8 -8 -8 -7 -7 -8 -8 -8 -9 -9 -9 -9 -9 -9 -9 -9 -9 -8 -8 -8 -8 -8 -7 -7 -7 -7 -7 -7 -7
Height
3136 3137 3138 3139 3140 3141 3142 3141 3142 3141 3141 3141 3141 3141 3141 3141 3142 3143 3144 3144 3145 3146 3146 3147 3147 3148 3149 3149 3150 3150 3151 3151 3152 3152 3153 3153 3153 3153 3153 3154 3155 3155 3155
3133 3133 3134 3135 3135 3136 3137 3138 3137 3138 3137 3136 3136 3136 3136 3135 3137 3140 3140 3140 3140 3141 3141 3142 3143 3143 3145 3145 3146 3147 3147 3148 3148 3148 3148 3149 3149 3149 3149 3150 3150 3151 3151
3130 3129 3130 3131 3132 3132 3132 3132 3133 3133 3133 3134 3133 3133 3132 3132 3134 3136 3136 3136 3136 3136 3137 3137 3138 3139 3140 3141 3141 3142 3143 3143 3144 3144 3144 3145 3145 3145 3145 3146 3146 3146 3146
3126 3127 3126 3127 3128 3128 3128 3128 3130 3130 3130 3130 3130 3130 3130 3129 3130 3131 3133 3133 3132 3132 3132 3133 3133 3134 3134 3135 3136 3136 3136 3137 3138 3138 3139 3139 3140 3140 3141 3141 3141 3141 3141
3123 3123 3123 3124 3124 3124 3125 3125 3126 3127 3127 3126 3127 3127 3126 3126 3126 3127 3128 3127 3127 3128 3128 3128 3128 3128 3129 3130 3130 3130 3130 3131 3131 3131 3132 3133 3133 3134 3135 3135 3136 3136 3136
3120 3120 3120 3121 3121 3122 3122 3122 3121 3123 3123 3122 3123 3122 3122 3124 3123 3123 3123 3123 3123 3123 3123 3122 3122 3122 3123 3123 3123 3123 3124 3125 3125 3125 3125 3126 3127 3127 3127 3128 3129 3130 3130
3117 3117 3119 3118 3118 3118 3119 3119 3119 3120 3120 3119 3119 3120 3120 3120 3120 3120 3119 3119 3119 3118 3117 3117 3117 3117 3117 3117 3117 3117 3117 3117 3117 3118 3118 3118 3119 3119 3120 3120 3121 3121 3122
3116 3115 3116 3116 3116 3116 3116 3116 3117 3117 3117 3117 3116 3116 3116 3117 3115 3115 3114 3114 3114 3113 3112 3112 3112 3111 3111 3111 3111 3111 3111 3110 3110 3110 3110 3110 3110 3111 3111 3112 3112 3113 3113
3114 3113 3113 3113 3113 3113 3114 3114 3114 3114 3114 3114 3114 3114 3113 3113 3112 3111 3110 3110 3110 3109 3108 3108 3107 3106 3105 3105 3105 3104 3104 3103 3102 3102 3101 3102 3102 3102 3102 3103 3103 3103 3104
3111 3111 3110 3110 3110 3110 3110 3111 3111 3111 3110 3110 3110 3109 3109 3109 3108 3108 3107 3105 3105 3104 3103 3102 3102 3101 3100 3099 3098 3098 3097 3096 3095 3095 3094 3094 3094 3093 3094 3094 3094 3094 3095
3107 3107 3107 3107 3107 3107 3106 3106 3106 3106 3106 3106 3105 3104 3104 3103 3103 3102 3101 3100 3099 3097 3097 3096 3095 3094 3093 3092 3091 3090 3089 3089 3088 3087 3086 3085 3084 3084 3085 3085 3084 3084 3085
3103 3104 3103 3103 3103 3103 3103 3102 3101 3101 3100 3100 3099 3098 3097 3097 3095 3095 3095 3094 3094 3093 3091 3090 3088 3087 3086 3085 3084 3083 3081 3080 3079 3078 3078 3077 3075 3076 3076 3076 3075 3075 3076
3098 3099 3100 3099 3099 3098 3098 3097 3096 3094 3093 3093 3092 3090 3089 3089 3088 3086 3085 3085 3084 3085 3083 3082 3079 3077 3075 3074 3073 3073 3072 3071 3070 3069 3068 3068 3067 3067 3067 3067 3067 3066 3066
3093 3094 3095 3095 3094 3094 3092 3091 3090 3089 3087 3086 3085 3083 3082 3080 3079 3078 3076 3075 3073 3073 3072 3072 3071 3068 3067 3065 3063 3062 3062 3061 3061 3061 3060 3059 3059 3059 3058 3058 3057 3057 3057
3089 3089 3090 3090 3089 3089 3088 3086 3085 3083 3082 3079 3078 3076 3075 3073 3071 3069 3068 3066 3065 3064 3064 3064 3064 3061 3058 3056 3054 3053 3052 3052 3052 3051 3051 3051 3050 3050 3050 3050 3049 3048 3048
3083 3085 3085 3085 3085 3084 3083 3082 3080 3078 3076 3074 3072 3070 3067 3066 3063 3061 3059 3057 3055 3053 3051 3052 3053 3052 3050 3047 3045 3043 3042 3042 3043 3043 3042 3042 3042 3042 3041 3041 3040 3040 3040
3078 3079 3080 3081 3080 3080 3079 3077 3076 3074 3071 3068 3066 3064 3061 3059 3056 3054 3052 3050 3048 3046 3044 3043 3042 3042 3041 3039 3038 3037 3036 3036 3035 3035 3034 3034 3034 3033 3033 3032 3031 3031 3032
3072 3073 3074 3075 3075 3075 3074 3072 3069 3067 3064 3062 3059 3057 3054 3052 3050 3048 3045 3044 3042 3041 3038 3037 3036 3035 3033 3032 3031 3030 3030 3031 3030 3029 3028 3027 3027 3026 3025 3024 3024 3024 3024
3065 3067 3068 3069 3069 3068 3067 3065 3062 3060 3057 3055 3052 3049 3047 3045 3043 3041 3039 3038 3036 3034 3032 3029 3029 3028 3027 3028 3028 3026 3027 3027 3026 3024 3024 3024 3021 3020 3018 3018 3018 3018 3018
3058 3060 3061 3061 3061 3061 3060 3058 3055 3053 3050 3047 3044 3042 3040 3039 3036 3035 3034 3033 3031 3028 3026 3024 3024 3024 3024 3024 3024 3024 3024 3023 3023 3021 3020 3018 3018 3016 3015 3014 3014 3014 3013
3049 3051 3052 3053 3055 3055 3054 3052 3049 3046 3043 3040 3038 3036 3035 3033 3031 3031 3030 3029 3027 3025 3024 3023 3022 3021 3020 3019 3020 3021 3021 3019 3019 3018 3017 3015 3013 3012 3011 3010 3009 3008 3007
3044 3046 3047 3048 3049 3049 3048 3045 3042 3038 3037 3034 3033 3031 3030 3029 3028 3027 3026 3025 3023 3022 3021 3020 3019 3018 3017 3017 3017 3017 3017 3016 3015 3015 3013 3011 3009 3008 3007 3006 3005 3003 3002
3038 3040 3041 3043 3044 3042 3040 3037 3035 3033 3031 3029 3028 3028 3027 3026 3025 3024 3023 3021 3020 3019 3018 3017 3016 3015 3015 3015 3015 3014 3013 3012 3011 3010 3008 3007 3006 3005 3003 3001 3000 2999 2997
3033 3034 3037 3038 3038 3036 3034 3032 3030 3028 3026 3025 3024 3023 3022 3022 3021 3021 3020 3018 3018 3017 3017 3016 3015 3014 3014 3013 3012 3011 3011 3009 3008 3006 3005 3004 3002 3000 2999 2997 2995 2993 2991
3027 3030 3033 3034 3033 3032 3031 3028 3026 3024 3022 3021 3019 3018 3018 3018 3018 3018 3017 3016 3016 3016 3015 3015 3014 3013 3012 3011 3010 3009 3008 3007 3005 3003 3001 2999 2998 2996 2994 2992 2990 2988 2985
3024 3027 3029 3030 3029 3028 3026 3024 3021 3019 3018 3016 3014 3014 3014 3015 3015 3015 3015 3015 3014 3014 3013 3012 3012 3011 3011 3009 3008 3007 3005 3003 3001 2999 2997 2995 2993 2991 2988 2986 2983 2981 2978
Wind_Speed
22 23 22 20 17 17 18 15 18 21 21 18 18 19 21 22 23 19 23 22 22 21 21 21 20 19 18 18 18 18 19 20 22 23 23 22 21 20 20 19 18 18 18
20 19 21 18 18 20 19 21 18 19 17 15 15 17 19 17 15 16 18 20 22 24 24 23 23 23 22 23 23 22 22 22 23 23 23 23 22 22 21 21 21 21 21
18 19 18 19 20 19 18 17 16 13 13 13 13 14 13 13 20 22 23 19 20 21 22 23 25 25 25 25 26 27 27 27 27 28 27 28 26 25 25 24 23 23 23
18 18 18 16 16 15 15 14 14 13 13 13 13 14 14 14 16 17 19 20 20 19 19 20 21 22 23 26 27 28 29 30 31 31 31 29 29 30 29 26 26 25 25
16 15 15 15 14 14 14 14 13 14 13 13 13 12 12 13 14 16 18 19 20 21 22 22 22 23 23 24 24 25 26 27 27 28 29 30 31 31 31 30 29 28 28
13 13 13 13 13 13 14 14 12 13 12 12 12 11 12 13 13 15 16 17 18 19 21 21 22 23 24 26 27 27 28 29 29 29 30 29 30 31 33 34 35 34 33
11 12 12 12 12 11 12 12 11 12 11 11 12 11 12 13 14 15 15 15 17 18 19 19 20 21 22 24 25 27 28 29 30 31 32 32 32 32 33 34 34 37 37
10 11 11 11 11 11 11 11 11 11 12 12 12 13 14 16 16 16 16 16 16 16 17 17 18 19 20 22 23 25 26 27 29 31 32 33 34 34 35 36 37 36 38
12 11 11 11 11 11 11 12 12 12 13 13 14 15 16 17 18 18 17 17 18 17 18 18 19 20 20 22 23 24 26 28 29 30 31 32 33 34 36 37 37 39 40
13 13 13 13 13 13 14 14 15 15 16 16 17 18 19 19 19 20 20 20 20 22 21 21 22 22 23 24 24 25 27 29 30 32 33 33 34 35 35 36 36 39 39
15 15 14 14 14 14 16 16 17 18 19 20 21 22 22 23 24 24 23 25 25 27 27 27 27 29 29 29 28 28 29 29 31 33 33 34 35 37 36 36 36 37 37
16 17 15 15 16 16 17 18 19 20 21 22 23 24 25 26 26 28 28 29 28 29 31 31 31 31 31 31 32 32 33 33 33 33 34 35 37 34 35 34 36 37 37
17 17 17 16 16 17 18 19 21 21 23 24 25 26 27 29 30 31 32 32 33 31 32 31 32 33 33 33 33 33 34 35 36 36 35 34 35 34 33 34 34 35 36
18 19 19 18 17 18 19 19 21 23 23 24 26 27 28 30 31 33 34 35 36 36 36 34 31 32 33 34 35 36 36 36 36 37 37 35 33 32 32 31 32 32 33
19 20 20 19 18 19 20 21 22 24 25 25 27 29 30 32 33 34 36 36 37 37 37 34 32 34 34 35 35 36 36 36 34 34 35 36 34 32 31 31 32 32 31
20 21 21 21 21 21 23 24 25 26 27 27 29 31 32 33 33 34 34 34 34 34 36 33 31 29 31 34 35 35 34 32 30 31 31 32 34 32 31 31 32 31 30
23 24 24 24 23 24 26 26 26 27 27 28 30 31 32 31 31 31 32 33 33 33 34 31 30 28 28 31 31 31 31 26 25 26 29 28 29 30 28 30 31 30 28
25 25 23 24 25 27 29 27 27 28 28 29 30 29 29 27 27 27 27 27 28 28 29 29 26 23 25 27 28 27 23 19 21 22 22 24 25 25 24 26 27 25 25
24 25 25 23 25 26 28 27 26 27 28 28 27 25 24 23 23 21 18 17 17 17 21 21 19 18 19 17 18 20 19 17 19 20 17 16 22 21 21 22 21 19 17
27 26 25 26 27 29 26 26 26 27 26 26 24 22 21 20 19 18 13 11 16 17 17 15 14 15 15 17 17 16 15 17 17 18 18 20 17 16 14 14 15 17 18
33 30 30 33 29 22 24 24 26 25 24 23 21 20 19 17 14 12 11 12 16 14 13 13 13 14 13 13 15 15 14 18 15 16 16 19 18 17 16 15 17 18 19
27 28 29 22 18 21 22 23 23 22 22 21 20 18 17 13 9 8 9 16 17 14 13 13 12 11 10 10 10 11 12 12 13 15 19 20 16 14 13 14 14 15 16
28 25 17 13 17 18 20 22 22 21 20 19 18 17 13 10 8 11 13 16 13 10 9 8 7 7 7 9 10 11 12 15 16 15 13 12 13 14 15 16 17 17 17
24 13 9 13 16 17 20 21 20 19 17 17 16 13 12 12 11 11 13 14 9 7 5 4 4 4 5 6 7 8 9 11 12 13 14 15 15 16 17 18 19 20 21
15 8 10 12 14 17 18 18 18 16 15 14 12 11 12 11 12 12 14 11 8 7 5 5 6 7 8 9 10 10 12 13 15 16 17 18 19 20 20 22 23 25 26
12 11 10 11 13 15 16 15 16 15 13 12 10 12 12 11 12 13 13 12 11 10 7 6 8 9 9 10 11 13 15 16 18 19 19 20 21 23 24 25 26 28 28
Wind_Direction
252 252 248 247 247 261 272 253 259 267 269 266 263 263 254 260 247 260 256 255 253 251 251 252 252 252 253 253 253 255 255 255 254 258 261 265 269 269 268 264 260 264 272
253 242 234 239 246 256 264 261 260 265 267 262 262 259 263 271 234 271 263 261 258 253 250 251 252 252 252 253 255 255 255 257 259 262 265 265 264 264 266 263 262 263 266
246 241 241 243 250 254 254 258 256 254 259 262 262 261 261 247 250 254 258 276 264 259 257 255 254 254 256 256 258 259 259 260 263 263 265 265 263 261 261 261 259 260 261
244 243 241 242 246 248 248 246 248 249 250 255 260 264 263 260 259 258 256 259 261 262 260 261 261 260 259 260 261 263 263 264 264 265 263 261 261 261 260 262 262 261 260
243 240 239 239 237 237 237 243 249 253 255 257 259 261 266 268 267 267 264 263 262 263 262 262 263 265 266 267 266 266 267 268 268 268 267 264 261 262 262 262 261 260 259
234 235 234 233 234 239 243 245 247 252 251 254 259 266 271 274 274 271 270 267 266 263 264 264 265 266 266 267 268 268 269 269 270 270 269 269 267 264 262 262 261 261 260
230 235 242 244 246 247 250 252 247 250 250 252 261 264 269 275 278 279 279 276 272 271 268 268 268 266 268 268 268 269 269 270 270 269 269 269 268 266 265 263 261 257 257
245 244 246 247 249 249 251 253 253 249 250 254 262 269 275 277 280 282 283 282 281 278 275 272 270 269 269 271 272 270 269 268 268 268 267 267 267 267 265 264 264 261 257
250 249 249 250 251 252 255 256 257 257 258 261 263 267 270 273 275 275 276 277 277 277 278 280 280 280 279 278 278 279 278 275 272 269 268 268 266 265 263 262 261 261 259
252 251 251 252 253 252 254 259 264 268 267 265 265 268 270 272 272 272 272 273 275 276 278 278 281 281 281 280 279 278 279 278 276 274 272 270 268 266 265 263 262 261 261
255 257 255 256 257 259 259 261 264 266 270 273 273 270 268 269 270 271 272 273 276 277 277 280 281 282 282 282 283 283 281 280 279 277 274 271 270 268 270 269 266 264 264
255 255 254 257 262 265 269 271 271 272 273 274 275 278 279 279 278 278 276 274 272 274 279 281 281 282 282 281 279 279 282 283 281 278 276 273 270 271 270 270 269 267 265
253 257 259 264 268 271 274 278 279 280 282 282 283 283 284 284 283 282 281 281 280 278 278 280 283 284 285 285 283 281 278 278 280 281 278 274 272 271 270 270 270 270 269
256 257 261 267 271 277 281 287 290 290 288 289 289 288 287 286 286 287 287 286 286 286 286 285 283 283 282 281 281 281 279 277 276 277 277 275 272 271 270 269 269 270 270
253 257 261 269 275 282 286 289 291 291 291 291 292 292 291 290 288 286 285 284 284 283 281 281 279 278 279 278 277 277 276 276 274 271 270 272 271 269 269 270 271 271 271
257 257 261 268 274 282 286 289 290 289 289 292 293 291 290 288 287 287 286 286 286 287 287 286 283 280 277 276 277 278 278 279 272 269 267 266 268 269 269 271 270 270 269
255 254 256 265 274 280 286 289 286 285 288 291 291 290 288 287 285 284 283 283 284 284 285 286 287 281 276 274 273 274 277 280 274 268 266 267 267 269 269 269 270 271 273
249 251 254 261 268 274 283 286 286 289 292 291 289 287 284 283 283 281 280 279 278 278 279 280 278 277 275 274 276 278 278 274 269 265 268 270 272 272 272 269 272 273 274
244 247 249 255 263 276 286 283 287 291 291 290 288 287 287 288 287 286 286 290 295 296 298 288 287 281 278 279 283 287 277 273 274 273 285 281 277 278 274 275 270 266 274
236 239 243 252 267 277 281 287 291 293 293 294 293 291 290 290 288 289 287 311 316 305 301 296 289 283 275 265 268 276 276 277 276 281 268 274 278 282 279 279 270 267 272
237 238 243 257 272 276 281 287 291 293 295 298 298 294 291 291 291 278 291 300 316 304 300 294 290 287 283 271 268 263 267 280 273 271 280 287 278 286 287 280 274 274 277
242 249 260 264 268 276 286 293 295 295 295 297 296 294 288 282 283 295 301 308 304 291 288 284 282 282 284 277 273 269 272 278 276 270 271 278 281 281 282 283 283 285 287
250 260 246 262 275 286 295 299 296 294 296 297 293 282 271 269 280 301 302 314 297 284 279 282 285 281 279 268 265 265 257 260 266 272 277 282 283 283 285 285 286 286 286
260 228 246 269 284 296 301 298 294 293 293 292 281 266 265 261 277 296 301 306 278 270 268 279 294 299 297 294 289 286 284 284 284 284 285 285 285 286 286 287 289 291 293
216 212 251 271 287 298 297 295 294 291 287 285 276 263 276 261 267 286 293 280 244 245 256 280 290 292 291 290 290 290 289 289 287 287 287 288 288 289 289 290 291 291 292
204 222 247 272 290 299 296 299 299 292 286 289 275 267 260 257 265 270 276 267 255 258 262 278 290 289 287 289 291 292 292 291 291 290 290 291 291 292 292 291 291 292 292